contact:dominique.lefevre@mio.osupytheas.fr, maurice.libes@osupytheas.fr, didier.mallarino@osupytheas.fr
Project:EMSO http://www.emso-fr.org/EMSO-France
Depth: 2436.0 m
Title:EMSO Ligure Ouest : Data MII capteur MICROCAT
DateTime_Computer,Latitude,Longitude,Temperature,Conductivity,Pressure,DateTime_Instrument
DateTime_Computer,Latitude,Longitude,degC,S m-1,dbar,DateTime_Instrument
2020-09-12T00:01:28Z,42.805,6.029,13.2973,4.59976,2470.087,2020-9-12T02:02:20Z
2020-09-12T00:04:31Z,42.805,6.029,13.2974,4.59976,2470.124,2020-9-12T02:05:23Z
2020-09-12T00:07:33Z,42.805,6.029,13.2971,4.59975,2470.124,2020-9-12T02:08:25Z
2020-09-12T00:10:38Z,42.805,6.029,13.2972,4.59974,2470.11,2020-9-12T02:11:30Z
2020-09-12T00:13:42Z,42.805,6.029,13.2974,4.59976,2470.1,2020-9-12T02:14:34Z
2020-09-12T00:16:46Z,42.805,6.029,13.2973,4.59975,2470.11,2020-9-12T02:17:37Z
2020-09-12T00:19:50Z,42.805,6.029,13.2973,4.59974,2470.087,2020-9-12T02:20:42Z
2020-09-12T00:22:52Z,42.805,6.029,13.2974,4.59976,2470.11,2020-9-12T02:23:44Z
2020-09-12T00:25:55Z,42.805,6.029,13.2971,4.59974,2470.063,2020-9-12T02:26:46Z
2020-09-12T00:28:58Z,42.805,6.029,13.2971,4.59976,2470.1,2020-9-12T02:29:49Z
2020-09-12T00:32:01Z,42.805,6.029,13.2972,4.59975,2470.133,2020-9-12T02:32:53Z
2020-09-12T00:35:05Z,42.805,6.029,13.2972,4.59976,2470.087,2020-9-12T02:35:57Z
2020-09-12T00:38:08Z,42.805,6.029,13.2974,4.59976,2470.133,2020-9-12T02:38:59Z
2020-09-12T00:41:12Z,42.805,6.029,13.2970,4.59975,2470.133,2020-9-12T02:42:03Z
2020-09-12T00:44:17Z,42.805,6.029,13.2968,4.59973,2470.11,2020-9-12T02:45:08Z
2020-09-12T00:47:18Z,42.805,6.029,13.2972,4.59974,2470.11,2020-9-12T02:48:09Z
2020-09-12T00:50:22Z,42.805,6.029,13.2976,4.59975,2470.087,2020-9-12T02:51:13Z
2020-09-12T00:53:25Z,42.805,6.029,13.2973,4.59975,2470.077,2020-9-12T02:54:16Z
2020-09-12T00:56:29Z,42.805,6.029,13.2975,4.59976,2470.087,2020-9-12T02:57:20Z
2020-09-12T00:59:33Z,42.805,6.029,13.2973,4.59977,2470.124,2020-9-12T03:00:24Z
2020-09-12T01:02:34Z,42.805,6.029,13.2977,4.59976,2470.133,2020-9-12T03:03:26Z
2020-09-12T01:05:36Z,42.805,6.029,13.2976,4.59976,2470.063,2020-9-12T03:06:27Z
2020-09-12T01:08:38Z,42.805,6.029,13.2973,4.59979,2470.11,2020-9-12T03:09:30Z
2020-09-12T01:11:43Z,42.805,6.029,13.2968,4.59974,2470.124,2020-9-12T03:12:34Z
2020-09-12T01:14:46Z,42.805,6.029,13.2971,4.59976,2470.156,2020-9-12T03:15:38Z
2020-09-12T01:17:50Z,42.805,6.029,13.2976,4.59977,2470.087,2020-9-12T03:18:41Z
2020-09-12T01:20:52Z,42.805,6.029,13.2972,4.59976,2470.087,2020-9-12T03:21:43Z
2020-09-12T01:23:54Z,42.805,6.029,13.2972,4.59976,2470.087,2020-9-12T03:24:45Z
2020-09-12T01:26:57Z,42.805,6.029,13.2971,4.59975,2470.087,2020-9-12T03:27:49Z
2020-09-12T01:29:59Z,42.805,6.029,13.2972,4.59976,2470.087,2020-9-12T03:30:51Z
2020-09-12T01:33:01Z,42.805,6.029,13.2970,4.59977,2470.147,2020-9-12T03:33:52Z
2020-09-12T01:36:03Z,42.805,6.029,13.2974,4.59976,2470.124,2020-9-12T03:36:54Z
2020-09-12T01:39:07Z,42.805,6.029,13.2974,4.59976,2470.11,2020-9-12T03:39:58Z
2020-09-12T01:42:10Z,42.805,6.029,13.2974,4.59976,2470.087,2020-9-12T03:43:02Z
2020-09-12T01:45:14Z,42.805,6.029,13.2971,4.59977,2470.147,2020-9-12T03:46:06Z
2020-09-12T01:48:17Z,42.805,6.029,13.2976,4.59976,2470.11,2020-9-12T03:49:08Z
2020-09-12T01:51:20Z,42.805,6.029,13.2976,4.59976,2470.087,2020-9-12T03:52:12Z
2020-09-12T01:54:22Z,42.805,6.029,13.2972,4.59976,2470.11,2020-9-12T03:55:14Z
2020-09-12T01:57:25Z,42.805,6.029,13.2972,4.59976,2470.11,2020-9-12T03:58:17Z
2020-09-12T02:00:29Z,42.805,6.029,13.2970,4.59975,2470.124,2020-9-12T04:01:20Z
2020-09-12T02:03:33Z,42.805,6.029,13.2974,4.59975,2470.11,2020-9-12T04:04:24Z
2020-09-12T02:06:36Z,42.805,6.029,13.2976,4.59976,2470.138,2020-9-12T04:07:27Z
2020-09-12T02:09:39Z,42.805,6.029,13.2969,4.59974,2470.1,2020-9-12T04:10:30Z
2020-09-12T02:12:43Z,42.805,6.029,13.2971,4.59974,2470.124,2020-9-12T04:13:34Z
2020-09-12T02:15:46Z,42.805,6.029,13.2976,4.59976,2470.124,2020-9-12T04:16:38Z
2020-09-12T02:18:50Z,42.805,6.029,13.2974,4.59975,2470.133,2020-9-12T04:19:41Z
2020-09-12T02:21:53Z,42.805,6.029,13.2973,4.59976,2470.11,2020-9-12T04:22:44Z
2020-09-12T02:24:56Z,42.805,6.029,13.2973,4.59975,2470.133,2020-9-12T04:25:48Z
2020-09-12T02:27:58Z,42.805,6.029,13.2975,4.59974,2470.1,2020-9-12T04:28:49Z
2020-09-12T02:31:02Z,42.805,6.029,13.2971,4.59975,2470.1,2020-9-12T04:31:54Z
2020-09-12T02:34:04Z,42.805,6.029,13.2972,4.59975,2470.1,2020-9-12T04:34:55Z
2020-09-12T02:37:07Z,42.805,6.029,13.2969,4.59976,2470.11,2020-9-12T04:37:59Z
2020-09-12T02:40:11Z,42.805,6.029,13.2973,4.59974,2470.11,2020-9-12T04:41:03Z
2020-09-12T02:43:14Z,42.805,6.029,13.2971,4.59975,2470.087,2020-9-12T04:44:06Z
2020-09-12T02:46:19Z,42.805,6.029,13.2976,4.59974,2470.1,2020-9-12T04:47:11Z
2020-09-12T02:49:23Z,42.805,6.029,13.2971,4.59974,2470.11,2020-9-12T04:50:14Z
2020-09-12T02:52:26Z,42.805,6.029,13.2973,4.59975,2470.124,2020-9-12T04:53:17Z
2020-09-12T02:55:29Z,42.805,6.029,13.2976,4.59975,2470.11,2020-9-12T04:56:21Z
2020-09-12T02:58:33Z,42.805,6.029,13.2971,4.59973,2470.11,2020-9-12T04:59:24Z
2020-09-12T03:01:36Z,42.805,6.029,13.2974,4.59973,2470.133,2020-9-12T05:02:28Z
2020-09-12T03:04:40Z,42.805,6.029,13.2974,4.59975,2470.087,2020-9-12T05:05:32Z
2020-09-12T03:07:44Z,42.805,6.029,13.2973,4.59975,2470.087,2020-9-12T05:08:36Z
2020-09-12T03:10:48Z,42.805,6.029,13.2974,4.59974,2470.11,2020-9-12T05:11:39Z
2020-09-12T03:13:51Z,42.805,6.029,13.2974,4.59975,2470.124,2020-9-12T05:14:43Z
2020-09-12T03:16:55Z,42.805,6.029,13.2971,4.59975,2470.087,2020-9-12T05:17:46Z
2020-09-12T03:19:58Z,42.805,6.029,13.2973,4.59974,2470.087,2020-9-12T05:20:49Z
2020-09-12T03:22:59Z,42.805,6.029,13.2971,4.59974,2470.124,2020-9-12T05:23:50Z
2020-09-12T03:26:02Z,42.805,6.029,13.2973,4.59975,2470.147,2020-9-12T05:26:53Z
2020-09-12T03:29:07Z,42.805,6.029,13.2972,4.59975,2470.147,2020-9-12T05:29:58Z
2020-09-12T03:32:09Z,42.805,6.029,13.2972,4.59976,2470.171,2020-9-12T05:33:01Z
2020-09-12T03:35:13Z,42.805,6.029,13.2970,4.59975,2470.124,2020-9-12T05:36:04Z
2020-09-12T03:38:16Z,42.805,6.029,13.2971,4.59973,2470.087,2020-9-12T05:39:07Z
2020-09-12T03:41:19Z,42.805,6.029,13.2972,4.59974,2470.087,2020-9-12T05:42:10Z
2020-09-12T03:44:21Z,42.805,6.029,13.2973,4.59974,2470.124,2020-9-12T05:45:12Z
2020-09-12T03:47:24Z,42.805,6.029,13.2969,4.59974,2470.11,2020-9-12T05:48:16Z
2020-09-12T03:50:28Z,42.805,6.029,13.2972,4.59976,2470.087,2020-9-12T05:51:20Z
2020-09-12T03:53:30Z,42.805,6.029,13.2971,4.59974,2470.11,2020-9-12T05:54:22Z
2020-09-12T03:56:32Z,42.805,6.029,13.2968,4.59975,2470.133,2020-9-12T05:57:23Z
2020-09-12T03:59:36Z,42.805,6.029,13.2975,4.59976,2470.124,2020-9-12T06:00:27Z
2020-09-12T04:02:40Z,42.805,6.029,13.2971,4.59976,2470.133,2020-9-12T06:03:32Z
2020-09-12T04:05:42Z,42.805,6.029,13.2973,4.59975,2470.087,2020-9-12T06:06:33Z
2020-09-12T04:08:46Z,42.805,6.029,13.2973,4.59973,2470.133,2020-9-12T06:09:37Z
2020-09-12T04:11:49Z,42.805,6.029,13.2974,4.59975,2470.11,2020-9-12T06:12:40Z
2020-09-12T04:14:50Z,42.805,6.029,13.2975,4.59975,2470.11,2020-9-12T06:15:42Z
2020-09-12T04:17:53Z,42.805,6.029,13.2974,4.59975,2470.11,2020-9-12T06:18:44Z
2020-09-12T04:20:56Z,42.805,6.029,13.2974,4.59976,2470.124,2020-9-12T06:21:48Z
2020-09-12T04:23:58Z,42.805,6.029,13.2972,4.59976,2470.11,2020-9-12T06:24:49Z
2020-09-12T04:27:01Z,42.805,6.029,13.2973,4.59974,2470.11,2020-9-12T06:27:53Z
2020-09-12T04:30:03Z,42.805,6.029,13.2972,4.59974,2470.087,2020-9-12T06:30:54Z
2020-09-12T04:33:05Z,42.805,6.029,13.2971,4.59975,2470.124,2020-9-12T06:33:57Z
2020-09-12T04:36:09Z,42.805,6.029,13.2971,4.59973,2470.087,2020-9-12T06:37:01Z
2020-09-12T04:39:13Z,42.805,6.029,13.2971,4.59976,2470.087,2020-9-12T06:40:04Z
2020-09-12T04:42:15Z,42.805,6.029,13.2967,4.59975,2470.11,2020-9-12T06:43:06Z
2020-09-12T04:45:18Z,42.805,6.029,13.2975,4.59975,2470.11,2020-9-12T06:46:10Z
2020-09-12T04:48:21Z,42.805,6.029,13.2973,4.59976,2470.087,2020-9-12T06:49:13Z
2020-09-12T04:51:24Z,42.805,6.029,13.2969,4.59975,2470.087,2020-9-12T06:52:15Z
2020-09-12T04:54:27Z,42.805,6.029,13.2969,4.59973,2470.087,2020-9-12T06:55:19Z
2020-09-12T04:57:29Z,42.805,6.029,13.2971,4.59973,2470.087,2020-9-12T06:58:20Z
2020-09-12T05:00:32Z,42.805,6.029,13.2971,4.59973,2470.087,2020-9-12T07:01:23Z
2020-09-12T05:03:34Z,42.805,6.029,13.2968,4.59974,2470.11,2020-9-12T07:04:25Z
2020-09-12T05:06:38Z,42.805,6.029,13.2973,4.59974,2470.1,2020-9-12T07:07:29Z
2020-09-12T05:09:40Z,42.805,6.029,13.2973,4.59973,2470.063,2020-9-12T07:10:32Z
2020-09-12T05:12:42Z,42.805,6.029,13.2972,4.59974,2470.077,2020-9-12T07:13:33Z
2020-09-12T05:15:43Z,42.805,6.029,13.2974,4.59973,2470.063,2020-9-12T07:16:34Z
2020-09-12T05:18:44Z,42.805,6.029,13.2969,4.59974,2470.077,2020-9-12T07:19:36Z
2020-09-12T05:21:48Z,42.805,6.029,13.2971,4.59975,2470.087,2020-9-12T07:22:39Z
2020-09-12T05:24:51Z,42.805,6.029,13.2973,4.59974,2470.063,2020-9-12T07:25:42Z
2020-09-12T05:27:55Z,42.805,6.029,13.2976,4.59973,2470.087,2020-9-12T07:28:47Z
2020-09-12T05:31:00Z,42.805,6.029,13.2974,4.59974,2470.049,2020-9-12T07:31:52Z
2020-09-12T05:34:05Z,42.805,6.029,13.2971,4.59976,2470.087,2020-9-12T07:34:56Z
2020-09-12T05:37:07Z,42.805,6.029,13.2971,4.59973,2470.087,2020-9-12T07:37:58Z
2020-09-12T05:40:09Z,42.805,6.029,13.2970,4.59973,2470.077,2020-9-12T07:41:01Z
2020-09-12T05:43:13Z,42.805,6.029,13.2975,4.59974,2470.1,2020-9-12T07:44:04Z
2020-09-12T05:46:17Z,42.805,6.029,13.2974,4.59973,2470.077,2020-9-12T07:47:08Z
2020-09-12T05:49:19Z,42.805,6.029,13.2971,4.59974,2470.087,2020-9-12T07:50:10Z
2020-09-12T05:52:22Z,42.805,6.029,13.2975,4.59973,2470.063,2020-9-12T07:53:14Z
2020-09-12T05:55:27Z,42.805,6.029,13.2973,4.59974,2470.087,2020-9-12T07:56:18Z
2020-09-12T05:58:30Z,42.805,6.029,13.2970,4.59974,2470.063,2020-9-12T07:59:21Z
2020-09-12T06:01:33Z,42.805,6.029,13.2974,4.59974,2470.077,2020-9-12T08:02:24Z
2020-09-12T06:04:34Z,42.805,6.029,13.2972,4.59973,2470.053,2020-9-12T08:05:26Z
2020-09-12T06:07:36Z,42.805,6.029,13.2971,4.59973,2470.1,2020-9-12T08:08:28Z
2020-09-12T06:10:40Z,42.805,6.029,13.2971,4.59973,2470.063,2020-9-12T08:11:31Z
2020-09-12T06:13:43Z,42.805,6.029,13.2971,4.59974,2470.063,2020-9-12T08:14:35Z
2020-09-12T06:16:46Z,42.805,6.029,13.2973,4.59973,2470.087,2020-9-12T08:17:38Z
2020-09-12T06:19:48Z,42.805,6.029,13.2974,4.59974,2470.087,2020-9-12T08:20:40Z
2020-09-12T06:22:51Z,42.805,6.029,13.2972,4.59974,2470.063,2020-9-12T08:23:43Z
2020-09-12T06:25:55Z,42.805,6.029,13.2972,4.59973,2470.063,2020-9-12T08:26:46Z
2020-09-12T06:28:58Z,42.805,6.029,13.2977,4.59975,2470.077,2020-9-12T08:29:49Z
2020-09-12T06:32:00Z,42.805,6.029,13.2971,4.59973,2470.077,2020-9-12T08:32:52Z
2020-09-12T06:35:04Z,42.805,6.029,13.2970,4.59973,2470.077,2020-9-12T08:35:55Z
2020-09-12T06:38:05Z,42.805,6.029,13.2974,4.59974,2470.063,2020-9-12T08:38:57Z
2020-09-12T06:41:06Z,42.805,6.029,13.2968,4.59973,2470.11,2020-9-12T08:41:58Z
2020-09-12T06:44:08Z,42.805,6.029,13.2975,4.59973,2470.063,2020-9-12T08:44:59Z
2020-09-12T06:47:10Z,42.805,6.029,13.2972,4.59974,2470.1,2020-9-12T08:48:02Z
2020-09-12T06:50:14Z,42.805,6.029,13.2970,4.59974,2470.063,2020-9-12T08:51:06Z
2020-09-12T06:53:18Z,42.805,6.029,13.2968,4.59975,2470.1,2020-9-12T08:54:10Z
2020-09-12T06:56:22Z,42.805,6.029,13.2970,4.59973,2470.1,2020-9-12T08:57:13Z
2020-09-12T06:59:23Z,42.805,6.029,13.2974,4.59974,2470.077,2020-9-12T09:00:15Z
2020-09-12T07:02:25Z,42.805,6.029,13.2974,4.59974,2470.087,2020-9-12T09:03:17Z
2020-09-12T07:05:28Z,42.805,6.029,13.2974,4.59973,2470.063,2020-9-12T09:06:19Z
2020-09-12T07:08:31Z,42.805,6.029,13.2971,4.59973,2470.063,2020-9-12T09:09:22Z
2020-09-12T07:11:36Z,42.805,6.029,13.2971,4.59973,2470.063,2020-9-12T09:12:27Z
2020-09-12T07:14:40Z,42.805,6.029,13.2976,4.59976,2470.063,2020-9-12T09:15:32Z
2020-09-12T07:17:42Z,42.805,6.029,13.2973,4.59973,2470.063,2020-9-12T09:18:33Z
2020-09-12T07:20:46Z,42.805,6.029,13.2973,4.59974,2470.063,2020-9-12T09:21:37Z
2020-09-12T07:23:49Z,42.805,6.029,13.2973,4.59974,2470.1,2020-9-12T09:24:40Z
2020-09-12T07:26:52Z,42.805,6.029,13.2975,4.59974,2470.077,2020-9-12T09:27:44Z
2020-09-12T07:29:54Z,42.805,6.029,13.2973,4.59974,2470.077,2020-9-12T09:30:45Z
2020-09-12T07:32:55Z,42.805,6.029,13.2971,4.59973,2470.017,2020-9-12T09:33:46Z
2020-09-12T07:35:56Z,42.805,6.029,13.2976,4.59973,2470.077,2020-9-12T09:36:48Z
2020-09-12T07:38:58Z,42.805,6.029,13.2971,4.59974,2470.053,2020-9-12T09:39:49Z
2020-09-12T07:42:01Z,42.805,6.029,13.2971,4.59974,2470.04,2020-9-12T09:42:53Z
2020-09-12T07:45:05Z,42.805,6.029,13.2969,4.59973,2470.063,2020-9-12T09:45:57Z
2020-09-12T07:48:08Z,42.805,6.029,13.2975,4.59974,2470.053,2020-9-12T09:49:00Z
2020-09-12T07:51:11Z,42.805,6.029,13.2972,4.59973,2470.017,2020-9-12T09:52:03Z
2020-09-12T07:54:15Z,42.805,6.029,13.2968,4.59973,2470.04,2020-9-12T09:55:07Z
2020-09-12T07:57:20Z,42.805,6.029,13.2972,4.59975,2470.04,2020-9-12T09:58:11Z
2020-09-12T08:00:23Z,42.805,6.029,13.2971,4.59973,2470.077,2020-9-12T10:01:14Z
2020-09-12T08:03:26Z,42.805,6.029,13.2971,4.59974,2470.049,2020-9-12T10:04:18Z
2020-09-12T08:06:29Z,42.805,6.029,13.2974,4.59973,2470.053,2020-9-12T10:07:21Z
2020-09-12T08:09:33Z,42.805,6.029,13.2971,4.59973,2470.04,2020-9-12T10:10:24Z
2020-09-12T08:12:36Z,42.805,6.029,13.2971,4.59973,2470.063,2020-9-12T10:13:27Z
2020-09-12T08:15:39Z,42.805,6.029,13.2973,4.59973,2470.063,2020-9-12T10:16:31Z
2020-09-12T08:18:42Z,42.805,6.029,13.2973,4.59973,2470.077,2020-9-12T10:19:34Z
2020-09-12T08:21:46Z,42.805,6.029,13.2971,4.59975,2470.053,2020-9-12T10:22:38Z
2020-09-12T08:24:50Z,42.805,6.029,13.2970,4.59972,2470.053,2020-9-12T10:25:41Z
2020-09-12T08:27:53Z,42.805,6.029,13.2974,4.59973,2470.077,2020-9-12T10:28:44Z
2020-09-12T08:30:57Z,42.805,6.029,13.2969,4.59974,2470.04,2020-9-12T10:31:49Z
2020-09-12T08:33:59Z,42.805,6.029,13.2971,4.59972,2470.04,2020-9-12T10:34:50Z
2020-09-12T08:37:01Z,42.805,6.029,13.2970,4.59973,2470.077,2020-9-12T10:37:52Z
2020-09-12T08:40:04Z,42.805,6.029,13.2974,4.59976,2470.03,2020-9-12T10:40:55Z
2020-09-12T08:43:07Z,42.805,6.029,13.2975,4.59973,2470.063,2020-9-12T10:43:58Z
2020-09-12T08:46:11Z,42.805,6.029,13.2970,4.59973,2470.04,2020-9-12T10:47:03Z
2020-09-12T08:49:13Z,42.805,6.029,13.2973,4.59972,2470.04,2020-9-12T10:50:04Z
2020-09-12T08:52:15Z,42.805,6.029,13.2972,4.59973,2470.063,2020-9-12T10:53:06Z
2020-09-12T08:55:17Z,42.805,6.029,13.2971,4.59973,2470.04,2020-9-12T10:56:08Z
2020-09-12T08:58:20Z,42.805,6.029,13.2974,4.59973,2470.063,2020-9-12T10:59:11Z
2020-09-12T09:01:22Z,42.805,6.029,13.2970,4.59975,2470.077,2020-9-12T11:02:14Z
2020-09-12T09:04:24Z,42.805,6.029,13.2968,4.59973,2470.077,2020-9-12T11:05:15Z
2020-09-12T09:07:27Z,42.805,6.029,13.2971,4.59973,2470.04,2020-9-12T11:08:18Z
2020-09-12T09:10:31Z,42.805,6.029,13.2969,4.59973,2470.053,2020-9-12T11:11:22Z
2020-09-12T09:13:36Z,42.805,6.029,13.2971,4.59973,2470.063,2020-9-12T11:14:27Z
2020-09-12T09:16:38Z,42.805,6.029,13.2973,4.59973,2470.053,2020-9-12T11:17:29Z
2020-09-12T09:19:43Z,42.805,6.029,13.2974,4.59972,2470.053,2020-9-12T11:20:34Z
2020-09-12T09:22:47Z,42.805,6.029,13.2968,4.59975,2470.077,2020-9-12T11:23:38Z
2020-09-12T09:25:48Z,42.805,6.029,13.2971,4.59973,2470.063,2020-9-12T11:26:40Z
2020-09-12T09:28:51Z,42.805,6.029,13.2971,4.59974,2469.993,2020-9-12T11:29:43Z
2020-09-12T09:31:53Z,42.805,6.029,13.2969,4.59972,2470.053,2020-9-12T11:32:44Z
2020-09-12T09:34:56Z,42.805,6.029,13.2974,4.59973,2470.063,2020-9-12T11:35:48Z
2020-09-12T09:38:00Z,42.805,6.029,13.2971,4.59973,2470.077,2020-9-12T11:38:51Z
2020-09-12T09:41:01Z,42.805,6.029,13.2968,4.59973,2470.053,2020-9-12T11:41:53Z
2020-09-12T09:44:04Z,42.805,6.029,13.2970,4.59974,2470.063,2020-9-12T11:44:56Z
2020-09-12T09:47:08Z,42.805,6.029,13.2968,4.59974,2470.077,2020-9-12T11:47:59Z
2020-09-12T09:50:12Z,42.805,6.029,13.2974,4.59973,2470.04,2020-9-12T11:51:03Z
2020-09-12T09:53:16Z,42.805,6.029,13.2972,4.59974,2470.053,2020-9-12T11:54:08Z
2020-09-12T09:56:20Z,42.805,6.029,13.2971,4.59973,2470.063,2020-9-12T11:57:11Z
2020-09-12T09:59:24Z,42.805,6.029,13.2968,4.59973,2470.063,2020-9-12T12:00:15Z
2020-09-12T10:02:28Z,42.805,6.029,13.2971,4.59973,2470.063,2020-9-12T12:03:18Z
2020-09-12T10:05:31Z,42.805,6.029,13.2971,4.59974,2470.003,2020-9-12T12:06:22Z
2020-09-12T10:08:34Z,42.805,6.029,13.2970,4.59976,2470.1,2020-9-12T12:09:26Z
2020-09-12T10:11:38Z,42.805,6.029,13.2972,4.59973,2470.077,2020-9-12T12:12:29Z
2020-09-12T10:14:42Z,42.805,6.029,13.2972,4.59974,2470.04,2020-9-12T12:15:33Z
2020-09-12T10:17:44Z,42.805,6.029,13.2971,4.59973,2470.087,2020-9-12T12:18:35Z
2020-09-12T10:20:48Z,42.805,6.029,13.2971,4.59973,2470.053,2020-9-12T12:21:39Z
2020-09-12T10:23:52Z,42.805,6.029,13.2972,4.59975,2470.077,2020-9-12T12:24:44Z
2020-09-12T10:26:54Z,42.805,6.029,13.2971,4.59973,2470.04,2020-9-12T12:27:45Z
2020-09-12T10:29:57Z,42.805,6.029,13.2971,4.59973,2470.04,2020-9-12T12:30:48Z
2020-09-12T10:33:00Z,42.805,6.029,13.2973,4.59973,2470.063,2020-9-12T12:33:51Z
2020-09-12T10:36:04Z,42.805,6.029,13.2972,4.59973,2470.049,2020-9-12T12:36:55Z
2020-09-12T10:39:06Z,42.805,6.029,13.2974,4.59972,2470.04,2020-9-12T12:39:57Z
2020-09-12T10:42:10Z,42.805,6.029,13.2975,4.59973,2470.063,2020-9-12T12:43:02Z
2020-09-12T10:45:13Z,42.805,6.029,13.2968,4.59974,2470.1,2020-9-12T12:46:04Z
2020-09-12T10:48:14Z,42.805,6.029,13.2974,4.59974,2470.063,2020-9-12T12:49:05Z
2020-09-12T10:51:19Z,42.805,6.029,13.2972,4.59975,2470.1,2020-9-12T12:52:10Z
2020-09-12T10:54:21Z,42.805,6.029,13.2969,4.59972,2470.1,2020-9-12T12:55:13Z
2020-09-12T10:57:25Z,42.805,6.029,13.2970,4.59974,2470.1,2020-9-12T12:58:17Z
2020-09-12T11:00:29Z,42.805,6.029,13.2971,4.59974,2470.087,2020-9-12T13:01:20Z
2020-09-12T11:03:33Z,42.805,6.029,13.2973,4.59975,2470.063,2020-9-12T13:04:24Z
2020-09-12T11:06:35Z,42.805,6.029,13.2969,4.59974,2470.077,2020-9-12T13:07:26Z
2020-09-12T11:09:38Z,42.805,6.029,13.2971,4.59973,2470.1,2020-9-12T13:10:30Z
2020-09-12T11:12:42Z,42.805,6.029,13.2972,4.59973,2470.077,2020-9-12T13:13:33Z
2020-09-12T11:15:45Z,42.805,6.029,13.2970,4.59976,2470.087,2020-9-12T13:16:37Z
2020-09-12T11:18:48Z,42.805,6.029,13.2971,4.59973,2470.124,2020-9-12T13:19:40Z
2020-09-12T11:21:52Z,42.805,6.029,13.2974,4.59974,2470.1,2020-9-12T13:22:43Z
2020-09-12T11:24:57Z,42.805,6.029,13.2970,4.59976,2470.049,2020-9-12T13:25:48Z
2020-09-12T11:27:58Z,42.805,6.029,13.2975,4.59976,2470.11,2020-9-12T13:28:49Z
2020-09-12T11:31:01Z,42.805,6.029,13.2967,4.59973,2470.063,2020-9-12T13:31:53Z
2020-09-12T11:34:03Z,42.805,6.029,13.2971,4.59974,2470.087,2020-9-12T13:34:54Z
2020-09-12T11:37:05Z,42.805,6.029,13.2972,4.59974,2470.1,2020-9-12T13:37:56Z
2020-09-12T11:40:08Z,42.805,6.029,13.2973,4.59974,2470.087,2020-9-12T13:41:00Z
2020-09-12T11:43:12Z,42.805,6.029,13.2970,4.59974,2470.1,2020-9-12T13:44:03Z
2020-09-12T11:46:15Z,42.805,6.029,13.2975,4.59974,2470.156,2020-9-12T13:47:06Z
2020-09-12T11:49:19Z,42.805,6.029,13.2970,4.59976,2470.1,2020-9-12T13:50:10Z
2020-09-12T11:52:23Z,42.805,6.029,13.2971,4.59974,2470.087,2020-9-12T13:53:14Z
2020-09-12T11:55:26Z,42.805,6.029,13.2971,4.59975,2470.1,2020-9-12T13:56:18Z
2020-09-12T11:58:30Z,42.805,6.029,13.2974,4.59973,2470.096,2020-9-12T13:59:21Z
2020-09-12T12:01:33Z,42.805,6.029,13.2971,4.59973,2470.063,2020-9-12T14:02:25Z
2020-09-12T12:04:36Z,42.805,6.029,13.2972,4.59975,2470.087,2020-9-12T14:05:28Z
2020-09-12T12:07:39Z,42.805,6.029,13.2975,4.59973,2470.11,2020-9-12T14:08:31Z
2020-09-12T12:10:42Z,42.805,6.029,13.2974,4.59975,2470.11,2020-9-12T14:11:34Z
2020-09-12T12:13:44Z,42.805,6.029,13.2971,4.59974,2470.133,2020-9-12T14:14:35Z
2020-09-12T12:16:45Z,42.805,6.029,13.2976,4.59976,2470.11,2020-9-12T14:17:37Z
2020-09-12T12:19:48Z,42.805,6.029,13.2971,4.59974,2470.11,2020-9-12T14:20:40Z
2020-09-12T12:22:52Z,42.805,6.029,13.2971,4.59975,2470.133,2020-9-12T14:23:43Z
2020-09-12T12:25:53Z,42.805,6.029,13.2972,4.59974,2470.11,2020-9-12T14:26:44Z
2020-09-12T12:28:54Z,42.805,6.029,13.2971,4.59976,2470.11,2020-9-12T14:29:46Z
2020-09-12T12:31:57Z,42.805,6.029,13.2972,4.59974,2470.11,2020-9-12T14:32:48Z
2020-09-12T12:34:58Z,42.805,6.029,13.2973,4.59975,2470.124,2020-9-12T14:35:49Z
2020-09-12T12:38:02Z,42.805,6.029,13.2971,4.59974,2470.11,2020-9-12T14:38:53Z
2020-09-12T12:41:03Z,42.805,6.029,13.2973,4.59976,2470.124,2020-9-12T14:41:55Z
2020-09-12T12:44:08Z,42.805,6.029,13.2973,4.59976,2470.124,2020-9-12T14:44:59Z
2020-09-12T12:47:13Z,42.805,6.029,13.2970,4.59975,2470.1,2020-9-12T14:48:04Z
2020-09-12T12:50:17Z,42.805,6.029,13.2970,4.59975,2470.133,2020-9-12T14:51:08Z
2020-09-12T12:53:21Z,42.805,6.029,13.2971,4.59977,2470.11,2020-9-12T14:54:13Z
2020-09-12T12:56:25Z,42.805,6.029,13.2974,4.59974,2470.087,2020-9-12T14:57:16Z
2020-09-12T12:59:29Z,42.805,6.029,13.2972,4.59975,2470.133,2020-9-12T15:00:21Z
2020-09-12T13:02:33Z,42.805,6.029,13.2974,4.59976,2470.133,2020-9-12T15:03:25Z
2020-09-12T13:05:36Z,42.805,6.029,13.2975,4.59974,2470.171,2020-9-12T15:06:28Z
2020-09-12T13:08:41Z,42.805,6.029,13.2974,4.59974,2470.133,2020-9-12T15:09:32Z
2020-09-12T13:11:43Z,42.805,6.029,13.2974,4.59974,2470.133,2020-9-12T15:12:34Z
2020-09-12T13:14:46Z,42.805,6.029,13.2971,4.59973,2470.133,2020-9-12T15:15:37Z
2020-09-12T13:17:49Z,42.805,6.029,13.2971,4.59976,2470.133,2020-9-12T15:18:41Z
2020-09-12T13:20:53Z,42.805,6.029,13.2974,4.59976,2470.133,2020-9-12T15:21:44Z
2020-09-12T13:23:56Z,42.805,6.029,13.2974,4.59975,2470.133,2020-9-12T15:24:47Z
2020-09-12T13:26:59Z,42.805,6.029,13.2974,4.59973,2470.147,2020-9-12T15:27:51Z
2020-09-12T13:30:03Z,42.805,6.029,13.2971,4.59976,2470.171,2020-9-12T15:30:54Z
2020-09-12T13:33:05Z,42.805,6.029,13.2972,4.59976,2470.133,2020-9-12T15:33:56Z
2020-09-12T13:36:08Z,42.805,6.029,13.2976,4.59973,2470.156,2020-9-12T15:36:59Z
2020-09-12T13:39:12Z,42.805,6.029,13.2971,4.59976,2470.156,2020-9-12T15:40:04Z
2020-09-12T13:42:13Z,42.805,6.029,13.2974,4.59976,2470.156,2020-9-12T15:43:05Z
2020-09-12T13:45:15Z,42.805,6.029,13.2972,4.59976,2470.18,2020-9-12T15:46:06Z
2020-09-12T13:48:16Z,42.805,6.029,13.2974,4.59978,2470.147,2020-9-12T15:49:08Z
2020-09-12T13:51:21Z,42.805,6.029,13.2973,4.59976,2470.156,2020-9-12T15:52:12Z
2020-09-12T13:54:23Z,42.805,6.029,13.2970,4.59976,2470.194,2020-9-12T15:55:14Z
2020-09-12T13:57:26Z,42.805,6.029,13.2973,4.59974,2470.124,2020-9-12T15:58:17Z
2020-09-12T14:00:30Z,42.805,6.029,13.2973,4.59974,2470.171,2020-9-12T16:01:22Z
2020-09-12T14:03:34Z,42.805,6.029,13.2969,4.59974,2470.133,2020-9-12T16:04:25Z
2020-09-12T14:06:37Z,42.805,6.029,13.2975,4.59975,2470.156,2020-9-12T16:07:28Z
2020-09-12T14:09:41Z,42.805,6.029,13.2974,4.59976,2470.133,2020-9-12T16:10:32Z
2020-09-12T14:12:44Z,42.805,6.029,13.2972,4.59976,2470.147,2020-9-12T16:13:35Z
2020-09-12T14:15:47Z,42.805,6.029,13.2975,4.59974,2470.133,2020-9-12T16:16:39Z
2020-09-12T14:18:52Z,42.805,6.029,13.2974,4.59975,2470.18,2020-9-12T16:19:43Z
2020-09-12T14:21:55Z,42.805,6.029,13.2974,4.59975,2470.133,2020-9-12T16:22:47Z
2020-09-12T14:24:59Z,42.805,6.029,13.2974,4.59975,2470.133,2020-9-12T16:25:50Z
2020-09-12T14:28:04Z,42.805,6.029,13.2974,4.59975,2470.18,2020-9-12T16:28:55Z
2020-09-12T14:31:06Z,42.805,6.029,13.2974,4.59974,2470.217,2020-9-12T16:31:58Z
2020-09-12T14:34:08Z,42.805,6.029,13.2969,4.59975,2470.133,2020-9-12T16:35:00Z
2020-09-12T14:37:12Z,42.805,6.029,13.2974,4.59976,2470.156,2020-9-12T16:38:03Z
2020-09-12T14:40:14Z,42.805,6.029,13.2974,4.59976,2470.171,2020-9-12T16:41:06Z
2020-09-12T14:43:18Z,42.805,6.029,13.2974,4.59975,2470.156,2020-9-12T16:44:09Z
2020-09-12T14:46:22Z,42.805,6.029,13.2974,4.59978,2470.156,2020-9-12T16:47:13Z
2020-09-12T14:49:25Z,42.805,6.029,13.2971,4.59975,2470.156,2020-9-12T16:50:16Z
2020-09-12T14:52:26Z,42.805,6.029,13.2970,4.59976,2470.143,2020-9-12T16:53:18Z
2020-09-12T14:55:30Z,42.805,6.029,13.2968,4.59978,2470.11,2020-9-12T16:56:21Z
2020-09-12T14:58:33Z,42.805,6.029,13.2973,4.59976,2470.133,2020-9-12T16:59:25Z
2020-09-12T15:01:35Z,42.805,6.029,13.2969,4.59975,2470.156,2020-9-12T17:02:26Z
2020-09-12T15:04:39Z,42.805,6.029,13.2971,4.59976,2470.194,2020-9-12T17:05:31Z
2020-09-12T15:07:44Z,42.805,6.029,13.2977,4.59976,2470.203,2020-9-12T17:08:35Z
2020-09-12T15:10:45Z,42.805,6.029,13.2974,4.59976,2470.156,2020-9-12T17:11:36Z
2020-09-12T15:13:50Z,42.805,6.029,13.2971,4.59976,2470.203,2020-9-12T17:14:41Z